Weather History for VANP - October, 2012

Change the Weather History Date:

Monday, October 15, 2012

  Actual Average Record
Temperature  
Mean Temperature 78 °F -  
Max Temperature 94 °F 89 °F - ()
Min Temperature 63 °F 64 °F - ()
Cooling Degree Days 14    
Growing Degree Days 28 (Base 50)    
Moisture  
Dew Point 63 °F    
Average Humidity 62    
Maximum Humidity 94    
Minimum Humidity 26    
Precipitation  
Precipitation 0.00 in 0.06 in - ()
Sea Level Pressure  
Sea Level Pressure 29.95 in    
Wind  
Wind Speed 2 mph ()    
Max Wind Speed 4 mph    
Max Gust Speed -    
Visibility 2.8 miles    
Events      
T = Trace of Precipitation, MM = Missing Value Source: Averaged Metar Reports

Daily Weather History Graph

Daily Weather History Graph

Search for Another Location

Airport or City:

Trip Planner

Search our weather history database for the weather conditions in past years. The results will help you decide how hot, cold, wet, or windy it might be!

Date:

Astronomy

Oct. 15, 2012 Rise Set
Actual Time 6:09 AM IST 5:49 PM IST
Civil Twilight 5:46 AM IST 6:11 PM IST
Nautical Twilight 5:21 AM IST 6:37 PM IST
Astronomical Twilight 4:55 AM IST 7:03 PM IST
Moon 5:43 AM IST (10/15) 5:36 PM IST (10/15)
Length of Visible Light 12h 24m
Length of Day
11h 40m
Waning Crescent, 0% of the Moon is Illuminated
Oct 15
Waning Crescent
Oct 15
New
Oct 22
First Quarter
Oct 30
Full
Nov 7
Last Quarter

Hourly Weather History & Observations

Time (IST) Temp. Heat Index Dew Point Humidity Pressure Visibility Wind Dir Wind Speed Gust Speed Precip Events Conditions
12:10 AM 68.0 °F - 64.4 °F 88% 29.95 in 3.1 mi NW 2.3 mph - N/A   Haze
1:10 AM 66.2 °F - 64.4 °F 94% 29.95 in 1.9 mi WNW 2.3 mph - N/A   Haze
2:10 AM 66.2 °F - 62.6 °F 88% 29.92 in 1.9 mi NW 2.3 mph - N/A   Haze
2:30 AM 66 °F - 64 °F 90% 29.91 in 1 mi NNW 2.3 mph - -   Haze
3:10 AM 71.6 °F - 62.6 °F 73% 29.92 in 0.0 mi WNW 2.3 mph - N/A   Haze
4:10 AM 71.6 °F - 62.6 °F 73% 29.92 in - NNW 2.3 mph - N/A   Haze
5:10 AM 69.8 °F - 62.6 °F 78% 29.95 in 1.9 mi NNW 2.3 mph - N/A   Haze
5:30 AM 65 °F - 64 °F 93% 29.95 in 1 mi Calm Calm - -   Haze
6:10 AM 68.0 °F - 62.6 °F 83% 29.98 in 1.6 mi Calm Calm - N/A   Haze
6:40 AM 68.0 °F - 62.6 °F 83% 29.98 in 2.5 mi NW 3.5 mph - N/A   Haze
8:10 AM 75.2 °F - 64.4 °F 69% 30.01 in 3.1 mi North 2.3 mph - N/A   Haze
8:30 AM 77 °F - 64 °F 57% 29.99 in 2 mi NW 2.3 mph - -   Haze
9:10 AM 82.4 °F 85.4 °F 68.0 °F 62% 30.04 in 3.7 mi ENE 2.3 mph - N/A   Unknown
10:10 AM 86.0 °F 88.2 °F 66.2 °F 51% 30.04 in 3.7 mi ENE 3.5 mph - N/A   Unknown
11:10 AM 91.4 °F 93.2 °F 64.4 °F 41% 30.01 in 3.7 mi SSE 3.5 mph - N/A   Unknown
11:30 AM 90 °F - 68 °F 38% 29.94 in 2 mi SE 3.5 mph - -   Clear
12:10 PM 95.0 °F 99.5 °F 68.0 °F 41% 29.98 in 3.7 mi East 3.5 mph - N/A   Unknown
1:10 PM 95.0 °F 97.0 °F 64.4 °F 36% 29.95 in 3.7 mi WSW 3.5 mph - N/A   Unknown
2:10 PM 93.2 °F 97.7 °F 68.0 °F 44% 29.92 in 3.7 mi East 2.3 mph - N/A   Partly Cloudy
2:30 PM 90 °F - 63 °F 31% 29.86 in 2 mi SSE 2.3 mph - -   Scattered Clouds
3:10 PM 95.0 °F 96.0 °F 62.6 °F 34% 29.92 in 3.7 mi ENE 2.3 mph - N/A   Partly Cloudy
4:10 PM 93.2 °F 90.8 °F 53.6 °F 26% 29.89 in 3.7 mi East 3.5 mph - N/A   Partly Cloudy
5:10 PM 87.8 °F 87.1 °F 59.0 °F 38% 29.92 in 3.7 mi East 2.3 mph - N/A   Scattered Clouds
5:30 PM 78 °F - 67 °F 61% 29.88 in 2 mi Calm Calm - -   Clear
6:10 PM 80.6 °F 81.8 °F 62.6 °F 54% 29.92 in 3.7 mi Calm Calm - N/A   Unknown
7:10 PM 78.8 °F - 57.2 °F 47% 29.95 in 3.7 mi Calm Calm - N/A   Unknown
8:10 PM 75.2 °F - 57.2 °F 53% 29.95 in 3.7 mi Calm Calm - N/A   Unknown
8:30 PM 67 °F - 63 °F 81% 29.96 in 2 mi Calm Calm - -   Clear
9:10 PM 75.2 °F - 59.0 °F 57% 29.98 in 3.7 mi Calm Calm - N/A   Unknown
10:10 PM 73.4 °F - 60.8 °F 65% 29.98 in 3.7 mi Calm Calm - N/A   Unknown
11:10 PM 73.4 °F - 60.8 °F 65% 29.98 in 3.7 mi NNW 2.3 mph - N/A   Unknown
11:30 PM 65 °F - 63 °F 89% 29.97 in 2 mi West 2.3 mph - -   Clear